Wetbulb
50.25 49.81 49.32 48.54 48.08 48.09 48.14 47.77 47.01 47.02 47.54 47.69 47.42 47.21 47.07 46.91 46.49 46.28 46.21 46.07 45.71 45.43 45.29 45.15 45.02 44.90 44.69 44.38 44.05 43.80 43.44 43.16 42.81 42.00 41.53 41.74 42.07 42.22 42.27 42.17 42.03 41.72 41.60 41.51 41.51 41.46 41.44 41.39 41.18 40.85 40.67 40.48 40.53 40.62 40.66 40.66 40.48 40.17 39.83 39.58 39.35 39.28 39.13 38.85 38.78 38.61 38.55 38.40 38.51
49.43 49.03 48.29 46.81 46.73 47.43 47.95 47.33 47.05 47.06 47.28 47.70 47.54 47.29 47.05 46.70 46.23 45.97 45.72 45.46 45.44 45.30 45.09 45.00 44.81 44.61 44.40 44.03 43.69 43.45 43.14 42.78 42.60 42.24 41.93 41.93 42.03 42.12 42.05 42.05 41.95 41.83 41.52 41.47 41.33 41.25 41.11 41.18 40.90 40.62 40.39 40.41 40.34 40.27 40.31 40.52 40.48 40.04 39.60 39.39 39.36 39.36 39.12 38.78 38.64 38.69 38.70 38.56 38.54
49.42 49.20 48.88 48.26 48.13 47.87 47.66 47.43 47.42 47.42 47.42 47.47 47.47 47.21 46.83 46.42 46.03 45.65 45.34 45.16 45.23 45.10 44.88 44.72 44.66 44.34 43.89 43.77 43.48 43.14 42.78 42.50 42.43 42.29 42.15 42.01 42.05 41.91 41.91 41.88 41.81 41.52 41.38 41.44 41.45 41.23 41.15 41.16 40.70 40.25 39.91 40.13 40.06 39.92 39.97 40.25 40.19 39.83 39.49 39.40 39.32 39.20 38.99 38.56 38.68 38.68 38.62 38.33 38.39
49.23 48.96 48.62 48.18 47.90 47.74 47.54 47.31 47.29 47.32 47.25 47.24 47.18 46.86 46.45 46.13 45.86 45.55 45.26 45.02 44.83 44.61 44.58 44.50 44.43 44.07 43.65 43.37 43.05 42.74 42.29 41.53 41.86 42.05 42.05 41.91 41.81 41.76 41.74 41.73 41.46 41.45 41.61 41.63 41.49 41.42 41.36 41.23 40.81 40.45 40.26 40.26 39.96 39.71 39.64 39.82 39.60 39.31 39.07 39.07 39.02 38.87 38.68 38.42 38.60 38.53 38.32 38.15 37.99
48.88 48.55 48.38 48.25 48.02 47.88 47.81 47.71 47.47 47.25 47.18 47.07 46.72 46.34 46.00 45.78 45.54 45.19 44.81 44.33 44.10 44.08 44.06 44.26 44.17 43.70 43.33 42.98 42.74 42.45 42.33 41.73 40.81 41.24 41.96 41.76 41.83 41.76 41.69 41.52 41.38 41.40 41.55 41.47 41.41 41.47 41.39 41.14 40.75 40.53 40.38 40.24 39.90 39.70 39.60 39.53 39.12 38.81 38.41 38.34 38.34 38.49 38.37 38.15 38.12 38.23 38.23 38.01 37.75
48.22 48.38 48.36 48.29 48.07 47.97 47.77 47.62 47.45 47.23 47.06 46.90 46.31 45.75 45.30 45.12 44.89 44.52 44.18 43.73 43.66 43.63 43.39 42.78 42.61 42.42 42.38 42.77 42.46 42.34 42.33 42.33 41.74 41.67 41.74 41.55 41.48 41.46 41.38 41.33 41.39 41.41 41.38 41.30 41.29 41.32 41.22 40.92 40.24 39.85 39.56 39.40 39.19 39.10 39.17 39.22 38.52 38.24 38.09 38.02 38.14 38.36 38.44 38.21 37.72 37.72 37.76 37.73 37.50
47.96 47.90 47.84 47.79 47.78 47.70 47.58 47.43 47.29 47.03 46.76 46.32 45.77 45.24 44.87 44.72 44.36 44.02 43.89 43.75 43.58 43.26 42.60 41.88 42.09 42.19 42.17 42.29 42.08 41.93 41.96 41.82 41.91 41.74 41.53 41.25 41.11 41.04 40.96 41.03 41.11 41.09 41.09 41.10 41.01 40.88 40.78 40.63 39.91 39.34 38.91 38.47 38.72 38.96 39.01 38.84 38.34 38.09 37.99 37.95 37.99 38.21 38.32 38.51 38.58 38.23 37.77 37.11 36.84
47.58 47.43 47.33 47.28 47.38 47.28 47.21 46.92 46.78 46.43 46.12 45.64 45.19 44.78 44.51 44.34 43.99 43.88 43.73 43.58 43.30 42.98 42.60 42.31 42.62 42.55 42.34 42.03 41.89 41.84 41.69 41.53 41.37 41.46 41.34 41.11 40.80 40.66 40.61 40.74 40.67 40.67 40.76 40.88 40.59 40.45 40.30 40.17 39.57 39.20 38.98 38.82 38.64 38.78 38.92 38.80 38.89 38.52 37.99 37.60 37.41 37.93 38.76 39.56 40.03 39.25 38.02 37.00 36.95
47.31 47.19 47.21 47.17 47.17 46.95 46.74 46.50 46.36 45.98 45.59 45.26 44.82 44.59 44.32 44.14 43.87 43.70 43.45 43.08 42.73 42.69 42.69 42.67 42.52 42.33 42.10 41.88 41.69 41.52 41.33 41.20 41.04 41.05 40.96 40.88 40.55 40.41 40.33 40.40 40.25 40.25 40.41 40.52 40.33 40.12 39.82 39.54 39.29 39.03 38.85 38.48 38.28 38.43 38.73 38.98 38.59 38.26 37.95 37.51 37.12 37.36 37.96 38.37 38.70 38.32 37.78 37.38 37.37
46.94 46.97 47.03 46.93 46.90 46.53 46.29 46.11 45.90 45.61 45.37 44.92 44.55 44.18 43.49 42.32 43.12 43.46 43.30 42.94 42.69 42.81 42.96 42.77 42.55 42.26 41.97 41.66 41.54 41.31 41.16 41.12 40.82 40.75 40.54 40.41 39.95 39.95 40.02 40.10 39.91 39.84 39.91 39.97 39.96 39.77 39.46 39.13 38.97 38.79 38.67 38.51 38.34 38.36 38.33 38.46 38.09 37.95 37.81 37.37 37.33 37.43 37.60 37.83 37.69 37.48 37.33 37.48 37.48
46.79 46.83 46.79 46.69 46.43 45.97 45.70 45.77 45.40 45.11 44.89 44.54 44.23 43.98 43.56 42.74 43.27 43.38 43.24 43.12 43.20 42.98 42.74 42.62 42.41 42.12 41.74 41.66 41.40 41.25 41.11 41.02 40.77 40.55 40.34 40.11 39.83 39.89 39.98 39.95 39.70 39.47 39.40 39.54 39.61 39.40 39.18 38.72 38.51 38.36 38.29 38.16 38.21 38.17 38.07 37.95 37.70 37.61 37.61 37.27 37.38 37.24 36.90 36.48 36.63 36.82 36.93 37.14 36.88
46.76 46.69 46.66 46.51 46.19 45.91 45.59 45.36 45.16 44.88 44.59 44.27 44.06 43.99 43.99 43.97 43.79 43.35 43.12 43.34 43.17 42.81 42.55 42.33 42.16 41.88 41.67 41.46 41.31 41.05 40.89 40.89 40.55 40.32 40.11 39.91 39.91 39.93 39.79 39.69 39.47 39.26 39.10 39.18 39.36 39.06 38.70 38.45 38.17 37.95 37.72 37.69 37.84 37.86 37.67 37.46 37.14 36.92 36.73 36.57 36.46 36.16 35.98 35.75 36.06 36.20 36.24 36.46 36.07
46.65 46.45 46.38 46.15 45.97 45.75 45.38 45.15 45.08 44.87 44.53 44.25 44.11 44.15 44.06 43.92 43.52 43.29 43.16 43.34 42.78 42.59 42.31 42.10 41.97 41.83 41.60 41.30 41.25 41.01 40.90 40.62 40.41 40.21 39.98 39.93 39.84 39.70 39.58 39.41 39.34 39.12 39.04 39.08 39.15 38.89 38.52 38.21 38.03 37.61 37.23 37.18 37.33 37.42 37.42 37.19 36.71 36.26 36.01 35.86 35.77 35.62 35.53 35.33 35.51 35.45 35.36 34.96 34.64
46.57 46.32 46.11 45.90 45.72 45.40 45.28 45.04 44.87 44.73 44.53 44.29 44.22 44.23 44.02 44.06 43.47 43.14 42.98 43.08 42.66 42.38 42.03 41.86 41.65 41.51 41.32 41.11 40.95 40.83 40.62 40.49 40.25 40.05 39.93 39.70 39.71 39.54 39.40 39.27 39.03 38.89 38.85 38.93 38.95 38.77 38.40 38.06 37.80 37.52 37.16 36.98 37.09 37.18 37.24 37.10 36.70 36.33 35.80 35.48 35.27 35.29 35.26 34.96 35.13 35.04 34.70 33.97 33.50
46.31 46.17 46.03 45.74 45.47 45.30 45.06 44.89 44.74 44.57 44.43 44.23 44.23 44.22 44.03 43.99 43.26 42.84 42.73 42.81 42.28 42.17 42.00 41.79 41.58 41.18 40.94 40.98 40.89 40.67 40.48 40.42 40.12 39.91 39.79 39.42 39.47 39.40 39.19 39.06 38.85 38.68 38.65 38.60 38.70 38.60 38.44 37.99 37.79 37.47 37.17 36.98 36.96 37.02 37.06 37.05 36.73 36.39 36.01 35.60 35.18 35.12 35.15 35.06 35.09 34.65 34.08 33.39 32.99
46.13 45.99 45.77 45.56 45.17 45.01 44.92 44.73 44.70 44.58 44.44 44.20 44.18 44.03 43.89 43.75 43.40 42.98 42.45 42.41 42.22 42.07 41.88 41.65 41.53 41.51 41.34 40.75 40.69 40.52 40.48 40.34 40.13 39.93 39.56 39.28 39.19 39.05 38.97 38.81 38.51 38.41 38.40 38.31 38.37 38.37 38.29 38.05 37.85 37.53 37.28 37.06 36.98 36.90 36.90 36.85 36.56 36.24 35.92 35.65 35.18 35.07 34.99 34.81 34.69 34.22 33.55 33.00 32.53
45.74 45.67 45.53 45.26 44.94 44.69 44.71 44.69 44.67 44.51 44.26 44.13 44.10 43.99 43.78 43.64 43.42 42.74 41.99 41.66 41.86 41.79 41.60 41.44 41.46 41.44 41.16 40.52 40.56 40.47 40.40 40.27 40.06 39.69 39.34 39.15 38.89 38.83 38.63 38.57 38.43 38.33 38.34 38.21 37.99 37.84 37.80 37.75 37.70 37.68 37.43 37.27 36.98 36.68 36.46 36.29 36.12 35.81 35.49 35.36 35.15 35.08 34.79 34.38 34.26 33.80 33.16 32.44 32.13
45.54 45.37 45.30 44.98 44.71 44.57 44.55 44.59 44.55 44.34 44.11 44.03 43.92 43.83 43.72 43.62 43.27 42.74 42.11 41.54 41.83 41.70 41.32 41.25 41.39 41.23 41.11 40.82 40.70 40.48 40.17 40.10 39.75 39.47 39.32 38.98 38.89 38.73 38.61 38.52 38.42 38.46 38.36 38.17 37.80 37.54 37.31 37.16 37.34 37.47 37.45 37.18 36.85 36.55 36.17 35.96 35.63 35.52 35.30 35.08 35.09 35.06 34.86 34.31 33.88 33.33 32.77 32.31 32.03
45.35 45.17 45.03 44.76 44.55 44.39 44.27 44.17 44.24 44.19 43.99 43.92 43.84 43.70 43.62 43.32 43.05 42.69 42.31 41.95 41.52 41.44 41.31 41.17 41.20 41.13 40.89 40.59 40.65 40.17 39.76 39.90 39.66 39.37 39.24 38.99 38.81 38.64 38.55 38.42 38.34 38.34 38.12 37.86 37.60 37.31 37.05 36.94 37.04 37.12 37.11 36.85 36.54 36.22 35.93 35.67 35.44 35.17 35.06 34.96 34.92 34.82 34.68 34.15 33.67 33.41 33.10 32.84 32.45
45.23 44.98 44.86 44.70 44.53 44.47 44.37 44.13 44.13 44.13 44.11 44.03 43.82 43.63 43.32 43.10 42.84 42.33 41.96 41.75 41.52 41.51 41.38 41.10 41.01 40.89 40.72 40.61 40.44 40.15 39.85 39.87 39.68 39.39 39.10 38.95 38.76 38.42 38.20 38.10 38.07 37.91 37.80 37.62 37.38 37.05 36.80 36.61 36.83 36.93 36.84 36.48 36.04 35.72 35.46 35.15 34.89 34.82 34.76 34.74 34.74 34.52 34.26 33.98 33.69 33.68 33.42 33.04 32.43
45.12 45.02 44.84 44.86 44.57 44.54 44.55 44.47 44.38 44.24 44.07 43.99 43.68 43.46 43.25 43.05 42.60 42.12 41.77 41.51 41.67 41.51 41.26 41.06 40.93 40.65 40.50 40.37 40.28 40.11 40.04 39.76 39.73 39.40 39.05 38.71 38.32 38.01 37.86 37.84 37.73 37.65 37.58 37.41 37.09 36.68 36.46 36.36 36.43 36.55 36.46 36.24 35.80 35.39 34.95 34.63 34.41 34.32 34.30 34.30 34.15 33.96 33.86 33.64 33.43 33.21 32.98 32.65 32.10
45.21 45.23 45.09 44.93 44.73 44.62 44.61 44.65 44.46 44.24 44.07 43.87 43.66 43.51 43.20 42.89 42.38 42.12 41.91 41.80 41.55 41.35 41.19 41.07 40.87 40.63 40.41 40.34 40.17 40.09 40.00 39.62 39.61 39.35 38.88 38.49 38.07 37.91 37.70 37.75 37.60 37.30 37.13 37.05 36.53 36.18 35.85 35.94 36.03 36.10 36.08 35.84 35.58 35.18 34.72 34.24 33.90 33.78 33.64 33.52 33.41 33.26 33.12 33.10 32.94 32.76 32.68 32.39 32.06
45.21 45.23 45.21 45.08 44.76 44.26 43.91 44.14 44.14 44.02 43.87 43.70 43.58 43.44 43.05 42.67 42.31 42.03 41.88 41.71 41.19 41.06 41.05 41.21 40.98 40.83 40.60 40.53 40.36 40.11 39.87 39.54 39.35 38.97 38.61 38.34 37.96 37.70 37.60 37.72 37.39 37.05 36.79 36.70 35.92 35.40 35.12 35.15 35.22 35.44 35.44 35.38 35.18 34.86 34.48 34.00 33.61 33.26 33.05 32.73 32.54 32.48 32.54 32.53 32.44 32.35 32.18 32.02 31.83
45.15 45.09 45.19 45.22 44.81 44.46 44.21 44.16 43.92 43.80 43.65 43.56 43.51 43.27 43.00 42.49 42.05 41.75 41.41 41.18 41.03 40.96 40.97 41.14 41.12 40.97 40.70 40.60 40.29 39.95 39.57 39.11 38.77 38.36 38.02 37.83 37.72 37.50 37.50 37.54 37.17 36.89 36.71 36.35 34.86 33.97 33.55 33.71 34.25 34.49 34.58 34.70 34.74 34.59 34.30 33.92 33.34 32.91 32.49 32.12 31.89 31.85 31.87 31.92 32.03 31.89 31.72 31.51 31.54
45.15 44.94 44.83 44.90 44.61 44.42 44.28 44.09 43.78 43.56 43.51 43.56 43.49 43.29 42.83 42.33 41.79 41.44 41.07 40.83 40.93 40.87 40.85 40.82 40.84 40.90 40.79 40.49 40.14 39.87 39.52 39.05 38.36 37.91 37.61 37.23 37.34 37.38 37.35 37.35 36.94 36.86 36.33 34.84 32.36 31.27 31.16 31.67 32.42 33.04 33.54 34.03 34.18 34.11 33.96 33.59 33.18 32.77 32.23 31.82 31.53 31.32 31.32 31.38 31.39 31.46 31.45 31.27 31.20
45.06 44.77 44.61 44.49 44.35 44.13 43.97 43.92 43.80 43.70 43.72 43.72 43.55 43.13 42.55 42.02 41.67 41.28 41.00 40.60 40.76 40.87 40.77 40.61 40.54 40.26 40.07 40.18 39.99 39.68 39.33 38.90 38.33 37.74 37.23 36.92 37.00 36.94 36.93 36.86 36.65 36.74 35.88 33.10 31.15 30.34 30.34 30.41 30.59 31.32 32.27 33.42 33.47 33.32 33.16 33.01 32.83 32.47 32.07 31.68 31.43 31.10 30.85 30.64 30.79 30.92 31.07 31.06 30.89
44.63 44.46 44.32 44.33 44.21 43.99 43.92 43.95 43.99 43.94 43.78 43.73 43.29 42.81 42.38 42.11 41.79 41.35 40.91 40.69 40.74 40.80 40.79 40.57 40.65 39.80 39.12 39.83 39.68 39.41 39.02 38.67 38.08 37.40 36.88 36.73 36.72 36.60 36.39 36.42 36.32 35.81 34.34 31.32 30.19 29.95 30.00 30.01 30.02 30.28 30.95 32.22 32.51 32.50 32.44 32.40 32.39 32.13 31.79 31.58 31.42 31.15 30.81 30.38 30.32 30.33 30.39 30.48 30.46
44.20 44.18 44.21 44.11 43.92 43.92 43.95 44.14 43.99 43.86 43.73 43.50 43.21 42.83 42.46 42.16 41.72 41.35 40.98 40.82 40.86 40.88 40.72 40.58 40.54 40.03 39.67 39.70 39.52 39.41 38.97 38.52 37.90 37.22 36.87 36.77 36.50 36.24 35.99 35.80 35.81 34.53 32.43 29.69 29.66 29.61 29.69 29.74 29.77 29.61 29.67 30.01 31.39 32.03 32.23 32.13 31.97 31.80 31.63 31.46 31.31 31.06 30.77 30.40 30.27 30.17 29.93 29.81 29.78
43.98 43.99 43.92 43.85 43.70 43.84 43.96 44.08 43.95 43.73 43.70 43.55 43.34 43.03 42.59 42.10 41.68 41.31 41.16 41.08 40.95 40.77 40.57 40.46 40.40 40.21 39.81 39.46 39.47 39.33 38.94 38.26 37.76 37.26 36.98 36.72 36.37 36.07 35.73 35.26 34.94 33.48 31.20 28.78 29.26 29.44 29.53 29.61 29.53 29.20 28.77 28.51 30.19 31.18 31.78 31.88 31.76 31.53 31.41 31.33 31.28 30.95 30.68 30.32 30.16 29.87 29.65 29.50 29.28
43.70 43.61 43.56 43.41 43.51 43.62 43.71 43.85 43.91 43.95 43.90 43.81 43.44 42.97 42.44 41.96 41.61 41.22 41.03 40.95 40.88 40.83 40.85 40.85 40.49 39.96 39.51 39.47 39.40 39.10 38.55 37.89 37.45 37.13 36.73 36.42 36.11 35.77 35.31 34.56 34.59 33.62 31.52 28.52 28.99 29.26 29.34 29.41 29.34 29.00 28.60 28.01 29.36 30.57 31.49 31.77 31.67 31.45 31.32 31.24 31.11 30.95 30.61 30.30 29.94 29.59 29.35 29.16 28.92
43.27 43.10 43.12 42.99 43.11 43.27 43.46 43.76 43.98 44.13 44.01 43.75 43.26 42.74 42.20 41.81 41.51 41.38 41.32 41.23 41.23 40.97 40.75 40.80 40.19 39.78 39.55 39.66 39.47 38.90 38.29 37.71 37.16 36.80 36.43 36.19 35.19 34.98 34.94 34.64 34.37 33.23 31.20 28.36 28.82 29.02 29.08 29.08 29.02 28.85 28.51 27.98 28.92 30.25 31.37 31.85 31.74 31.52 31.33 31.25 31.06 30.85 30.54 30.30 29.88 29.53 29.21 28.87 28.62
42.84 42.74 42.69 42.53 42.69 42.97 43.39 43.81 44.08 44.08 43.87 43.35 42.91 42.52 42.21 41.84 41.73 41.81 41.81 41.84 41.53 41.02 40.47 40.05 39.52 39.32 39.28 39.39 39.13 38.67 38.03 37.31 36.89 36.70 36.39 35.94 35.58 35.35 35.02 34.53 34.23 32.71 30.47 28.19 28.58 28.69 28.69 28.60 28.66 28.57 28.42 27.92 28.76 30.26 31.63 31.94 31.86 31.68 31.57 31.37 31.15 30.99 30.63 30.25 29.88 29.45 29.06 28.72 28.50
42.69 42.71 42.63 42.47 42.61 43.02 43.48 43.92 44.05 44.01 43.66 43.18 42.81 42.45 42.16 42.10 41.97 42.06 42.14 42.09 41.54 40.81 40.13 39.52 39.13 39.06 39.05 39.01 38.59 37.99 37.35 36.64 36.51 35.98 35.36 35.08 35.18 35.02 34.64 34.15 34.29 32.10 29.10 27.94 28.36 28.41 28.41 28.24 28.27 28.27 28.19 27.83 29.18 30.81 31.99 32.22 32.00 31.90 31.71 31.52 31.44 31.22 30.85 30.38 29.82 29.38 29.11 28.77 28.59
42.88 42.73 42.65 42.59 42.76 43.18 43.51 43.91 44.06 43.89 43.62 43.10 42.73 42.52 42.31 42.16 41.98 41.84 41.84 41.63 41.18 40.64 40.02 39.67 39.44 39.36 39.31 39.26 38.62 37.72 36.71 35.81 35.89 35.91 35.78 35.37 35.17 34.68 34.22 34.22 34.35 31.50 28.00 27.66 28.08 28.16 28.16 27.99 28.10 28.10 28.16 28.08 29.85 31.36 32.24 32.13 31.95 31.80 31.58 31.42 31.44 31.23 30.93 30.46 30.02 29.57 29.24 28.94 28.64
42.74 42.80 42.68 42.87 42.97 43.27 43.45 43.61 43.56 43.48 43.14 42.69 42.45 42.36 42.31 42.12 41.82 41.80 41.59 41.10 40.45 40.06 39.79 39.52 39.63 39.54 39.41 39.18 38.43 37.35 36.35 35.75 35.83 35.90 35.69 35.33 34.93 34.41 34.00 33.84 33.53 30.73 27.43 27.32 27.76 27.90 27.90 27.76 27.99 28.02 28.25 28.76 30.75 31.91 32.35 31.95 31.66 31.51 31.35 31.23 31.08 30.93 30.76 30.32 30.01 29.62 29.40 29.17 28.51
42.64 42.88 42.98 43.13 43.20 43.18 43.30 43.33 43.11 42.95 42.60 42.32 42.08 42.03 41.93 41.89 41.95 41.97 41.50 40.52 39.75 39.36 39.21 39.13 39.17 39.05 38.56 37.95 37.20 36.54 36.17 36.37 36.21 35.75 35.31 34.84 34.54 34.23 34.10 33.77 33.22 30.64 27.59 26.90 27.31 27.57 27.59 27.65 27.82 27.91 28.49 29.69 31.46 32.26 32.27 31.81 31.51 31.27 31.15 30.97 30.77 30.54 30.31 30.09 29.73 29.55 29.35 29.12 28.53
42.87 43.12 43.35 43.25 43.09 42.98 42.98 43.08 42.82 42.51 42.24 41.99 41.91 41.82 41.88 41.89 41.97 41.96 41.50 40.09 39.43 38.90 38.60 38.71 38.37 37.87 37.31 36.59 36.40 36.47 36.78 37.00 36.37 35.63 34.82 34.16 33.98 33.84 33.71 33.37 33.17 31.17 28.53 26.72 26.89 27.23 27.48 27.57 27.66 27.90 28.75 30.26 31.58 31.99 31.84 31.51 31.24 30.99 30.78 30.68 30.47 30.37 30.03 29.85 29.65 29.42 29.20 29.00 28.11
43.05 43.19 43.21 43.16 42.89 42.80 42.80 42.95 42.59 42.19 41.95 41.78 41.84 41.89 41.94 41.92 42.01 41.70 40.84 38.98 38.89 38.51 38.25 38.14 37.26 36.65 36.35 36.43 36.92 37.29 37.52 37.20 36.15 35.36 34.74 34.10 33.80 33.53 33.14 32.79 32.59 31.56 29.67 26.92 26.58 26.75 27.26 27.43 27.60 27.85 28.66 30.23 31.24 31.62 31.52 31.16 30.83 30.63 30.47 30.31 30.15 29.93 29.81 29.71 29.50 29.34 29.09 28.61 26.94
42.90 42.90 42.91 42.71 42.82 42.70 42.66 42.46 42.31 42.07 41.90 41.75 41.84 41.89 41.94 41.95 41.90 41.50 40.64 39.05 39.04 38.71 38.06 37.53 36.73 36.53 36.64 36.85 37.55 37.67 37.28 36.70 35.67 34.99 34.62 34.36 33.69 32.57 31.77 32.01 32.08 31.56 29.98 27.03 26.22 26.39 26.84 27.26 27.51 27.68 28.28 29.66 30.87 31.26 31.18 30.86 30.46 30.18 30.08 29.87 29.56 29.41 29.36 29.45 29.31 29.14 28.91 28.56 26.47
42.84 42.95 42.87 42.86 42.80 42.72 42.38 42.09 41.92 41.88 41.99 41.96 41.80 41.81 41.83 41.89 41.71 41.35 40.67 39.67 39.44 38.75 38.06 37.45 37.22 37.40 37.54 37.13 37.67 37.43 36.69 35.89 35.40 34.81 34.32 34.13 33.04 30.97 29.71 31.31 31.53 31.26 30.01 27.35 26.08 26.00 26.47 26.98 27.34 27.59 28.16 29.66 30.70 31.10 31.08 30.77 30.24 29.84 29.53 29.35 28.97 28.74 28.79 28.99 29.04 28.94 28.77 28.64 27.58
42.91 42.77 42.62 42.64 42.73 42.64 42.18 41.71 41.61 41.87 42.10 42.15 42.07 41.89 41.84 41.67 41.68 41.50 41.20 40.49 39.72 39.02 38.44 38.17 38.33 38.48 38.31 37.35 37.39 36.84 35.94 34.89 34.77 34.47 33.96 33.31 32.41 30.47 29.42 31.12 31.13 31.17 30.69 28.97 26.81 26.00 26.14 26.67 27.09 27.51 28.03 29.10 30.15 30.73 31.00 30.57 29.94 29.30 28.87 28.66 28.56 28.29 28.13 28.28 28.51 28.53 28.55 28.51 28.62
MSLP
1025.35 1025.47 1025.59 1025.64 1025.71 1025.76 1025.88 1025.99 1026.07 1026.07 1026.04 1026.04 1026.07 1026.16 1026.19 1026.23 1026.31 1026.35 1026.47 1026.52 1026.56 1026.64 1026.71 1026.80 1026.83 1026.92 1027.04 1027.11 1027.16 1027.11 1027.11 1027.19 1027.19 1027.28 1027.31 1027.28 1027.23 1027.28 1027.23 1027.23 1027.19 1027.16 1027.07 1026.99 1026.92 1026.83 1026.76 1026.64 1026.47 1026.40 1026.31 1026.28 1026.16 1026.04 1025.99 1025.99 1025.95 1025.83 1025.71 1025.64 1025.47 1025.35 1025.28 1025.16 1024.99 1024.92 1024.83 1024.76 1024.68
1025.47 1025.64 1025.76 1025.83 1025.92 1025.92 1025.99 1026.04 1026.16 1026.19 1026.19 1026.19 1026.31 1026.31 1026.31 1026.40 1026.40 1026.47 1026.52 1026.64 1026.68 1026.76 1026.76 1026.83 1026.92 1027.04 1027.11 1027.19 1027.19 1027.19 1027.19 1027.23 1027.28 1027.28 1027.28 1027.31 1027.35 1027.35 1027.31 1027.28 1027.23 1027.23 1027.19 1027.11 1027.04 1026.95 1026.83 1026.76 1026.59 1026.47 1026.40 1026.28 1026.19 1026.07 1026.04 1025.99 1025.99 1025.92 1025.76 1025.64 1025.56 1025.47 1025.35 1025.19 1025.07 1024.99 1024.92 1024.80 1024.71
1025.56 1025.64 1025.68 1025.71 1025.76 1025.80 1025.88 1025.95 1026.04 1026.11 1026.19 1026.31 1026.40 1026.44 1026.47 1026.52 1026.56 1026.64 1026.64 1026.71 1026.76 1026.80 1026.80 1026.88 1026.99 1027.11 1027.19 1027.28 1027.31 1027.35 1027.35 1027.35 1027.31 1027.31 1027.31 1027.31 1027.35 1027.35 1027.35 1027.31 1027.28 1027.23 1027.19 1027.19 1027.16 1027.04 1026.95 1026.83 1026.64 1026.52 1026.44 1026.28 1026.19 1026.07 1026.04 1025.99 1025.95 1025.92 1025.83 1025.71 1025.64 1025.52 1025.40 1025.23 1025.16 1025.04 1024.99 1024.88 1024.76
1025.64 1025.64 1025.64 1025.71 1025.76 1025.83 1025.92 1025.99 1026.07 1026.19 1026.28 1026.35 1026.44 1026.52 1026.59 1026.64 1026.68 1026.68 1026.76 1026.76 1026.83 1026.88 1026.92 1026.99 1027.11 1027.28 1027.35 1027.35 1027.35 1027.40 1027.44 1027.47 1027.44 1027.35 1027.35 1027.35 1027.35 1027.35 1027.35 1027.35 1027.28 1027.19 1027.19 1027.16 1027.11 1027.04 1026.99 1026.83 1026.64 1026.47 1026.35 1026.28 1026.19 1026.11 1026.04 1026.04 1026.04 1025.99 1025.92 1025.83 1025.76 1025.59 1025.47 1025.35 1025.28 1025.19 1025.11 1024.99 1024.92
1025.76 1025.76 1025.83 1025.92 1025.95 1025.99 1026.04 1026.16 1026.19 1026.28 1026.35 1026.44 1026.47 1026.56 1026.64 1026.68 1026.71 1026.76 1026.76 1026.80 1026.92 1026.99 1027.07 1027.19 1027.28 1027.35 1027.44 1027.40 1027.40 1027.44 1027.47 1027.47 1027.47 1027.40 1027.35 1027.35 1027.35 1027.35 1027.35 1027.31 1027.28 1027.19 1027.16 1027.11 1027.07 1027.04 1026.95 1026.80 1026.59 1026.44 1026.31 1026.28 1026.23 1026.19 1026.16 1026.11 1026.07 1026.04 1025.99 1025.92 1025.83 1025.71 1025.56 1025.44 1025.35 1025.35 1025.23 1025.11 1024.99
1025.80 1025.92 1026.04 1026.04 1026.11 1026.16 1026.19 1026.28 1026.31 1026.40 1026.47 1026.47 1026.47 1026.47 1026.59 1026.68 1026.71 1026.76 1026.76 1026.83 1026.99 1027.16 1027.28 1027.35 1027.40 1027.44 1027.44 1027.40 1027.40 1027.40 1027.40 1027.44 1027.44 1027.40 1027.35 1027.35 1027.35 1027.35 1027.35 1027.28 1027.23 1027.19 1027.16 1027.07 1027.04 1026.99 1026.92 1026.80 1026.56 1026.44 1026.40 1026.35 1026.31 1026.28 1026.19 1026.19 1026.16 1026.07 1025.99 1025.92 1025.88 1025.76 1025.64 1025.47 1025.47 1025.40 1025.35 1025.19 1025.04
1025.83 1025.92 1026.04 1026.07 1026.19 1026.19 1026.28 1026.35 1026.47 1026.47 1026.47 1026.52 1026.52 1026.59 1026.64 1026.71 1026.76 1026.80 1026.88 1026.95 1027.07 1027.19 1027.35 1027.40 1027.40 1027.35 1027.35 1027.35 1027.35 1027.35 1027.35 1027.35 1027.35 1027.35 1027.35 1027.35 1027.31 1027.31 1027.28 1027.19 1027.19 1027.16 1027.07 1027.04 1026.99 1026.92 1026.88 1026.80 1026.64 1026.47 1026.40 1026.35 1026.28 1026.19 1026.19 1026.19 1026.16 1026.04 1025.95 1025.83 1025.80 1025.76 1025.64 1025.56 1025.52 1025.44 1025.35 1025.19 1025.04
1025.88 1025.92 1025.99 1026.07 1026.19 1026.28 1026.31 1026.40 1026.44 1026.47 1026.47 1026.52 1026.59 1026.68 1026.76 1026.80 1026.92 1026.95 1026.99 1027.04 1027.07 1027.19 1027.31 1027.35 1027.35 1027.35 1027.35 1027.35 1027.35 1027.35 1027.35 1027.35 1027.31 1027.35 1027.35 1027.35 1027.35 1027.31 1027.28 1027.23 1027.19 1027.11 1027.07 1027.04 1026.99 1026.92 1026.83 1026.76 1026.64 1026.52 1026.47 1026.40 1026.31 1026.28 1026.23 1026.23 1026.19 1026.07 1025.99 1025.88 1025.83 1025.76 1025.64 1025.52 1025.47 1025.35 1025.23 1025.16 1025.04
1025.88 1025.99 1026.07 1026.16 1026.23 1026.31 1026.35 1026.40 1026.47 1026.47 1026.47 1026.52 1026.64 1026.76 1026.88 1026.92 1026.99 1026.99 1026.99 1027.04 1027.11 1027.23 1027.31 1027.35 1027.40 1027.44 1027.44 1027.40 1027.40 1027.40 1027.40 1027.35 1027.35 1027.35 1027.35 1027.35 1027.35 1027.31 1027.28 1027.19 1027.16 1027.07 1027.04 1027.04 1026.99 1026.92 1026.83 1026.71 1026.64 1026.64 1026.59 1026.56 1026.47 1026.35 1026.31 1026.31 1026.19 1026.19 1026.07 1025.92 1025.80 1025.71 1025.64 1025.52 1025.40 1025.28 1025.16 1025.04 1024.92
1025.88 1025.99 1026.07 1026.19 1026.28 1026.35 1026.44 1026.44 1026.52 1026.52 1026.56 1026.59 1026.76 1026.88 1026.99 1027.04 1027.04 1026.99 1026.99 1027.07 1027.19 1027.23 1027.23 1027.31 1027.35 1027.35 1027.35 1027.40 1027.40 1027.40 1027.40 1027.40 1027.40 1027.35 1027.35 1027.35 1027.31 1027.28 1027.19 1027.19 1027.16 1027.07 1027.04 1027.04 1027.04 1026.95 1026.83 1026.76 1026.76 1026.76 1026.71 1026.64 1026.52 1026.47 1026.40 1026.35 1026.31 1026.19 1026.11 1025.95 1025.83 1025.71 1025.64 1025.47 1025.35 1025.19 1025.04 1024.92 1024.80
1025.88 1025.95 1026.04 1026.16 1026.31 1026.40 1026.44 1026.47 1026.47 1026.52 1026.59 1026.64 1026.76 1026.88 1026.95 1026.99 1026.99 1027.04 1027.07 1027.16 1027.19 1027.19 1027.23 1027.31 1027.35 1027.35 1027.31 1027.35 1027.35 1027.40 1027.44 1027.44 1027.44 1027.35 1027.28 1027.28 1027.28 1027.23 1027.19 1027.19 1027.19 1027.16 1027.07 1027.07 1027.07 1027.04 1026.92 1026.88 1026.80 1026.80 1026.76 1026.68 1026.59 1026.47 1026.44 1026.40 1026.31 1026.23 1026.16 1026.04 1025.92 1025.76 1025.64 1025.47 1025.35 1025.19 1024.99 1024.83 1024.76
1025.88 1025.95 1026.04 1026.16 1026.31 1026.35 1026.40 1026.40 1026.40 1026.47 1026.56 1026.64 1026.71 1026.76 1026.76 1026.83 1026.95 1027.04 1027.11 1027.07 1027.04 1027.11 1027.23 1027.35 1027.40 1027.35 1027.31 1027.31 1027.35 1027.40 1027.44 1027.44 1027.35 1027.31 1027.23 1027.19 1027.19 1027.19 1027.19 1027.19 1027.19 1027.19 1027.19 1027.16 1027.16 1027.07 1027.04 1026.95 1026.92 1026.83 1026.76 1026.64 1026.59 1026.52 1026.47 1026.40 1026.31 1026.23 1026.16 1026.04 1025.92 1025.76 1025.64 1025.47 1025.35 1025.23 1025.07 1024.92 1024.76
1025.92 1025.95 1026.04 1026.16 1026.28 1026.31 1026.31 1026.31 1026.35 1026.44 1026.47 1026.52 1026.59 1026.64 1026.64 1026.76 1026.88 1026.95 1026.99 1026.95 1026.95 1027.04 1027.16 1027.31 1027.40 1027.35 1027.31 1027.31 1027.35 1027.35 1027.35 1027.31 1027.31 1027.23 1027.19 1027.19 1027.19 1027.19 1027.19 1027.19 1027.19 1027.23 1027.23 1027.23 1027.19 1027.16 1027.04 1026.95 1026.92 1026.83 1026.76 1026.64 1026.59 1026.56 1026.47 1026.47 1026.35 1026.28 1026.16 1026.04 1025.92 1025.76 1025.64 1025.52 1025.40 1025.23 1025.11 1025.04 1024.92
1025.92 1025.95 1026.04 1026.16 1026.23 1026.28 1026.28 1026.23 1026.31 1026.35 1026.40 1026.44 1026.47 1026.52 1026.59 1026.68 1026.80 1026.92 1026.92 1026.92 1026.95 1027.04 1027.07 1027.19 1027.28 1027.31 1027.31 1027.35 1027.35 1027.31 1027.31 1027.28 1027.23 1027.19 1027.19 1027.19 1027.19 1027.19 1027.19 1027.23 1027.23 1027.28 1027.28 1027.23 1027.23 1027.19 1027.11 1027.04 1026.95 1026.88 1026.80 1026.71 1026.64 1026.59 1026.52 1026.47 1026.35 1026.28 1026.19 1026.04 1025.92 1025.76 1025.64 1025.52 1025.40 1025.28 1025.16 1025.07 1024.99
1025.88 1025.95 1026.04 1026.16 1026.19 1026.19 1026.19 1026.19 1026.23 1026.28 1026.31 1026.31 1026.44 1026.52 1026.59 1026.64 1026.76 1026.88 1026.92 1026.92 1027.04 1027.04 1027.04 1027.07 1027.11 1027.19 1027.35 1027.40 1027.35 1027.35 1027.31 1027.28 1027.19 1027.19 1027.16 1027.16 1027.19 1027.19 1027.19 1027.23 1027.28 1027.28 1027.28 1027.28 1027.23 1027.19 1027.11 1027.04 1026.95 1026.92 1026.83 1026.76 1026.64 1026.56 1026.47 1026.44 1026.31 1026.19 1026.11 1025.99 1025.92 1025.76 1025.64 1025.47 1025.35 1025.23 1025.19 1025.11 1024.99
1025.83 1025.92 1025.99 1026.07 1026.16 1026.16 1026.11 1026.16 1026.16 1026.19 1026.23 1026.31 1026.44 1026.52 1026.59 1026.64 1026.71 1026.88 1026.99 1026.99 1026.99 1026.99 1026.95 1026.99 1026.99 1027.07 1027.23 1027.35 1027.35 1027.31 1027.23 1027.19 1027.19 1027.16 1027.11 1027.11 1027.19 1027.19 1027.19 1027.23 1027.28 1027.28 1027.28 1027.23 1027.23 1027.19 1027.11 1027.04 1026.99 1026.92 1026.83 1026.76 1026.64 1026.52 1026.44 1026.31 1026.23 1026.16 1026.07 1025.95 1025.83 1025.76 1025.64 1025.47 1025.35 1025.31 1025.23 1025.19 1025.04
1025.76 1025.83 1025.92 1025.95 1026.04 1026.04 1026.04 1026.07 1026.07 1026.11 1026.19 1026.28 1026.35 1026.47 1026.56 1026.64 1026.71 1026.83 1026.95 1026.99 1026.92 1026.88 1026.92 1026.95 1026.95 1026.99 1027.07 1027.19 1027.23 1027.23 1027.19 1027.16 1027.11 1027.11 1027.16 1027.16 1027.19 1027.19 1027.23 1027.23 1027.23 1027.28 1027.23 1027.19 1027.19 1027.11 1027.04 1026.99 1026.99 1026.92 1026.83 1026.76 1026.64 1026.47 1026.40 1026.31 1026.19 1026.11 1026.04 1025.95 1025.83 1025.76 1025.64 1025.56 1025.47 1025.40 1025.35 1025.23 1025.11
1025.64 1025.76 1025.83 1025.92 1025.92 1025.95 1026.04 1026.04 1026.07 1026.11 1026.16 1026.23 1026.31 1026.44 1026.52 1026.59 1026.68 1026.76 1026.88 1026.92 1026.92 1026.88 1026.88 1026.92 1026.92 1026.99 1027.04 1027.04 1027.11 1027.16 1027.11 1027.11 1027.11 1027.16 1027.19 1027.19 1027.19 1027.23 1027.23 1027.23 1027.28 1027.28 1027.19 1027.19 1027.11 1027.07 1027.04 1026.92 1026.92 1026.92 1026.80 1026.71 1026.59 1026.47 1026.40 1026.31 1026.23 1026.19 1026.07 1025.95 1025.88 1025.76 1025.64 1025.59 1025.56 1025.47 1025.35 1025.19 1025.11
1025.56 1025.64 1025.76 1025.80 1025.83 1025.88 1025.95 1026.04 1026.07 1026.11 1026.19 1026.23 1026.31 1026.40 1026.47 1026.59 1026.64 1026.71 1026.76 1026.80 1026.88 1026.92 1026.92 1026.88 1026.92 1026.92 1026.99 1027.04 1027.07 1027.11 1027.16 1027.16 1027.19 1027.19 1027.23 1027.28 1027.23 1027.23 1027.23 1027.23 1027.23 1027.19 1027.16 1027.07 1027.07 1027.04 1027.04 1026.95 1026.92 1026.88 1026.76 1026.64 1026.59 1026.52 1026.47 1026.40 1026.31 1026.23 1026.16 1025.99 1025.88 1025.76 1025.64 1025.59 1025.52 1025.44 1025.31 1025.19 1025.07
1025.47 1025.52 1025.64 1025.68 1025.76 1025.80 1025.92 1025.99 1026.04 1026.16 1026.19 1026.23 1026.31 1026.35 1026.44 1026.52 1026.59 1026.64 1026.64 1026.68 1026.80 1026.88 1026.92 1026.88 1026.83 1026.88 1026.95 1027.04 1027.04 1027.07 1027.16 1027.16 1027.19 1027.19 1027.28 1027.28 1027.23 1027.23 1027.19 1027.19 1027.19 1027.11 1027.07 1027.04 1027.04 1027.07 1027.04 1027.04 1026.92 1026.88 1026.76 1026.68 1026.59 1026.52 1026.47 1026.44 1026.31 1026.23 1026.11 1025.95 1025.83 1025.71 1025.64 1025.52 1025.40 1025.31 1025.19 1025.16 1025.04
1025.35 1025.44 1025.47 1025.59 1025.64 1025.76 1025.83 1025.95 1026.04 1026.11 1026.19 1026.19 1026.23 1026.28 1026.31 1026.44 1026.52 1026.56 1026.59 1026.64 1026.76 1026.88 1026.92 1026.88 1026.83 1026.88 1026.92 1026.95 1026.99 1027.04 1027.07 1027.11 1027.19 1027.23 1027.28 1027.28 1027.28 1027.23 1027.23 1027.19 1027.19 1027.11 1027.07 1027.07 1027.11 1027.11 1027.11 1027.07 1026.99 1026.92 1026.76 1026.68 1026.64 1026.56 1026.47 1026.40 1026.28 1026.19 1026.04 1025.92 1025.80 1025.71 1025.59 1025.47 1025.35 1025.23 1025.11 1025.04 1024.92
1025.28 1025.35 1025.44 1025.52 1025.64 1025.71 1025.80 1025.92 1025.99 1026.04 1026.07 1026.11 1026.16 1026.19 1026.23 1026.31 1026.35 1026.47 1026.59 1026.68 1026.76 1026.83 1026.83 1026.80 1026.80 1026.83 1026.88 1026.92 1026.92 1026.99 1027.04 1027.11 1027.19 1027.23 1027.23 1027.23 1027.23 1027.23 1027.28 1027.28 1027.19 1027.16 1027.11 1027.11 1027.19 1027.23 1027.19 1027.16 1027.07 1026.95 1026.83 1026.71 1026.59 1026.52 1026.47 1026.40 1026.28 1026.11 1025.95 1025.88 1025.76 1025.68 1025.59 1025.47 1025.31 1025.19 1025.04 1024.95 1024.88
1025.23 1025.31 1025.35 1025.47 1025.59 1025.71 1025.76 1025.88 1025.92 1025.99 1025.99 1026.04 1026.04 1026.07 1026.16 1026.23 1026.31 1026.44 1026.59 1026.68 1026.76 1026.76 1026.76 1026.76 1026.76 1026.76 1026.83 1026.88 1026.92 1026.95 1027.04 1027.11 1027.16 1027.19 1027.23 1027.23 1027.19 1027.23 1027.28 1027.23 1027.19 1027.19 1027.19 1027.23 1027.35 1027.40 1027.35 1027.28 1027.16 1027.04 1026.88 1026.71 1026.59 1026.52 1026.47 1026.35 1026.23 1026.07 1025.95 1025.83 1025.76 1025.64 1025.52 1025.40 1025.28 1025.16 1025.04 1024.92 1024.83
1025.23 1025.28 1025.35 1025.44 1025.56 1025.64 1025.76 1025.80 1025.83 1025.88 1025.88 1025.88 1025.92 1025.95 1026.04 1026.19 1026.31 1026.44 1026.52 1026.59 1026.64 1026.64 1026.64 1026.68 1026.71 1026.76 1026.83 1026.88 1026.92 1026.95 1026.95 1026.99 1027.04 1027.07 1027.19 1027.23 1027.23 1027.23 1027.19 1027.19 1027.19 1027.19 1027.28 1027.35 1027.56 1027.68 1027.64 1027.47 1027.31 1027.11 1026.92 1026.76 1026.64 1026.47 1026.44 1026.31 1026.19 1026.07 1025.99 1025.88 1025.76 1025.59 1025.44 1025.35 1025.23 1025.11 1024.99 1024.92 1024.80
1025.19 1025.28 1025.35 1025.40 1025.47 1025.52 1025.64 1025.64 1025.68 1025.71 1025.71 1025.76 1025.76 1025.83 1025.95 1026.11 1026.19 1026.31 1026.40 1026.44 1026.47 1026.52 1026.56 1026.64 1026.68 1026.76 1026.83 1026.88 1026.92 1026.95 1026.95 1026.95 1026.99 1027.04 1027.16 1027.19 1027.28 1027.28 1027.19 1027.16 1027.19 1027.28 1027.35 1027.56 1027.83 1027.92 1027.92 1027.76 1027.59 1027.35 1027.07 1026.88 1026.68 1026.52 1026.44 1026.31 1026.19 1026.11 1026.04 1025.92 1025.76 1025.59 1025.44 1025.31 1025.16 1025.04 1024.95 1024.88 1024.76
1025.19 1025.23 1025.28 1025.35 1025.40 1025.44 1025.47 1025.47 1025.52 1025.56 1025.59 1025.64 1025.71 1025.76 1025.92 1025.99 1026.07 1026.16 1026.19 1026.28 1026.31 1026.44 1026.47 1026.52 1026.64 1026.71 1026.76 1026.83 1026.83 1026.92 1026.92 1026.92 1026.99 1027.07 1027.16 1027.16 1027.19 1027.19 1027.19 1027.11 1027.19 1027.35 1027.47 1027.76 1027.92 1027.95 1027.92 1027.80 1027.76 1027.59 1027.35 1027.07 1026.83 1026.64 1026.47 1026.28 1026.19 1026.07 1025.99 1025.88 1025.71 1025.56 1025.40 1025.19 1025.04 1024.92 1024.88 1024.80 1024.76
1025.11 1025.16 1025.19 1025.19 1025.28 1025.31 1025.35 1025.35 1025.35 1025.44 1025.47 1025.52 1025.64 1025.68 1025.76 1025.92 1025.95 1026.04 1026.04 1026.07 1026.19 1026.28 1026.40 1026.47 1026.52 1026.64 1026.76 1026.71 1026.71 1026.76 1026.80 1026.83 1026.95 1027.07 1027.11 1027.11 1027.16 1027.16 1027.11 1027.07 1027.19 1027.31 1027.52 1027.83 1027.92 1027.92 1027.83 1027.76 1027.71 1027.68 1027.56 1027.28 1026.99 1026.76 1026.52 1026.31 1026.16 1026.04 1025.92 1025.80 1025.64 1025.47 1025.35 1025.16 1025.04 1024.88 1024.80 1024.76 1024.71
1025.04 1025.04 1025.07 1025.11 1025.16 1025.19 1025.19 1025.19 1025.28 1025.31 1025.35 1025.40 1025.47 1025.56 1025.64 1025.71 1025.80 1025.88 1025.92 1025.92 1025.95 1026.07 1026.19 1026.31 1026.35 1026.47 1026.56 1026.52 1026.52 1026.59 1026.64 1026.76 1026.88 1026.99 1027.07 1027.07 1027.07 1027.07 1027.04 1027.04 1027.11 1027.35 1027.64 1027.88 1027.92 1027.88 1027.83 1027.76 1027.68 1027.64 1027.64 1027.47 1027.19 1026.88 1026.59 1026.31 1026.16 1025.99 1025.83 1025.64 1025.52 1025.35 1025.23 1025.16 1025.04 1024.92 1024.76 1024.68 1024.64
1024.99 1024.99 1024.99 1025.04 1025.04 1025.07 1025.11 1025.11 1025.16 1025.19 1025.23 1025.28 1025.35 1025.44 1025.52 1025.64 1025.68 1025.71 1025.76 1025.76 1025.83 1025.92 1025.99 1026.04 1026.16 1026.23 1026.28 1026.28 1026.31 1026.40 1026.59 1026.71 1026.83 1026.92 1026.95 1026.99 1026.99 1027.04 1027.04 1027.04 1027.04 1027.31 1027.64 1027.92 1027.88 1027.80 1027.76 1027.71 1027.68 1027.64 1027.64 1027.59 1027.31 1026.92 1026.59 1026.31 1026.11 1025.92 1025.76 1025.59 1025.47 1025.35 1025.23 1025.19 1025.07 1024.92 1024.80 1024.68 1024.64
1024.95 1024.95 1024.95 1024.92 1024.95 1024.99 1024.99 1025.04 1025.04 1025.07 1025.16 1025.19 1025.28 1025.35 1025.44 1025.47 1025.52 1025.56 1025.56 1025.64 1025.68 1025.68 1025.76 1025.80 1025.92 1025.99 1026.04 1026.07 1026.16 1026.28 1026.47 1026.64 1026.76 1026.88 1026.92 1026.99 1026.95 1026.92 1026.92 1026.99 1027.04 1027.23 1027.59 1027.83 1027.83 1027.76 1027.76 1027.68 1027.64 1027.64 1027.59 1027.59 1027.35 1027.04 1026.64 1026.31 1026.11 1025.92 1025.71 1025.56 1025.47 1025.35 1025.28 1025.19 1025.07 1024.99 1024.88 1024.71 1024.64
1024.92 1024.92 1024.92 1024.88 1024.92 1024.92 1024.92 1024.92 1024.95 1024.99 1025.07 1025.16 1025.19 1025.23 1025.23 1025.31 1025.31 1025.35 1025.35 1025.40 1025.40 1025.47 1025.59 1025.68 1025.76 1025.83 1025.92 1025.95 1026.04 1026.19 1026.31 1026.47 1026.68 1026.80 1026.83 1026.88 1026.92 1026.88 1026.88 1026.92 1026.95 1027.19 1027.56 1027.80 1027.80 1027.76 1027.71 1027.68 1027.64 1027.56 1027.56 1027.52 1027.35 1026.99 1026.64 1026.31 1026.07 1025.92 1025.71 1025.56 1025.47 1025.40 1025.31 1025.19 1025.11 1025.04 1024.92 1024.76 1024.64
1024.83 1024.83 1024.83 1024.80 1024.80 1024.80 1024.83 1024.88 1024.92 1024.95 1025.04 1025.07 1025.16 1025.16 1025.16 1025.16 1025.11 1025.07 1025.11 1025.11 1025.19 1025.35 1025.47 1025.59 1025.68 1025.71 1025.76 1025.83 1025.92 1026.04 1026.19 1026.35 1026.47 1026.56 1026.64 1026.71 1026.76 1026.76 1026.76 1026.83 1026.88 1027.11 1027.47 1027.76 1027.76 1027.68 1027.68 1027.64 1027.64 1027.52 1027.47 1027.47 1027.28 1026.92 1026.59 1026.28 1026.04 1025.83 1025.68 1025.56 1025.47 1025.35 1025.31 1025.23 1025.16 1025.04 1024.92 1024.83 1024.76
1024.76 1024.76 1024.76 1024.71 1024.68 1024.71 1024.76 1024.80 1024.83 1024.92 1024.95 1025.04 1025.04 1025.04 1024.99 1024.99 1024.99 1024.95 1024.95 1024.99 1025.07 1025.23 1025.40 1025.47 1025.52 1025.56 1025.59 1025.64 1025.76 1025.95 1026.11 1026.23 1026.35 1026.47 1026.59 1026.68 1026.68 1026.68 1026.68 1026.71 1026.71 1027.07 1027.52 1027.71 1027.71 1027.64 1027.64 1027.64 1027.59 1027.47 1027.44 1027.35 1027.16 1026.76 1026.35 1026.07 1025.92 1025.76 1025.59 1025.47 1025.40 1025.31 1025.23 1025.19 1025.16 1025.04 1024.99 1024.92 1024.83
1024.71 1024.68 1024.64 1024.64 1024.64 1024.64 1024.68 1024.71 1024.76 1024.80 1024.88 1024.92 1024.92 1024.92 1024.92 1024.83 1024.83 1024.80 1024.83 1024.92 1025.04 1025.19 1025.28 1025.35 1025.40 1025.44 1025.47 1025.47 1025.64 1025.76 1025.99 1026.19 1026.31 1026.40 1026.47 1026.52 1026.56 1026.59 1026.64 1026.64 1026.68 1027.11 1027.59 1027.64 1027.64 1027.64 1027.64 1027.59 1027.52 1027.44 1027.35 1027.23 1026.95 1026.52 1026.16 1025.92 1025.76 1025.64 1025.47 1025.40 1025.31 1025.23 1025.19 1025.19 1025.19 1025.11 1025.04 1024.95 1024.92
1024.64 1024.64 1024.59 1024.59 1024.59 1024.59 1024.59 1024.59 1024.64 1024.68 1024.71 1024.76 1024.76 1024.76 1024.76 1024.71 1024.64 1024.64 1024.68 1024.80 1024.95 1025.11 1025.19 1025.23 1025.31 1025.31 1025.35 1025.44 1025.56 1025.76 1025.95 1026.19 1026.28 1026.35 1026.44 1026.47 1026.47 1026.47 1026.52 1026.56 1026.71 1027.16 1027.56 1027.59 1027.59 1027.56 1027.56 1027.52 1027.47 1027.40 1027.28 1027.07 1026.68 1026.28 1025.95 1025.80 1025.68 1025.56 1025.44 1025.35 1025.23 1025.19 1025.19 1025.19 1025.11 1025.04 1024.99 1024.95 1024.92
1024.52 1024.56 1024.56 1024.56 1024.52 1024.47 1024.47 1024.47 1024.47 1024.52 1024.56 1024.59 1024.59 1024.56 1024.52 1024.47 1024.47 1024.47 1024.52 1024.76 1024.92 1025.04 1025.11 1025.16 1025.19 1025.19 1025.31 1025.44 1025.64 1025.80 1025.95 1026.07 1026.19 1026.31 1026.44 1026.52 1026.47 1026.44 1026.40 1026.44 1026.64 1027.04 1027.47 1027.56 1027.56 1027.52 1027.47 1027.47 1027.44 1027.35 1027.19 1026.83 1026.44 1026.07 1025.88 1025.76 1025.64 1025.47 1025.40 1025.28 1025.19 1025.07 1025.07 1025.11 1025.04 1024.99 1024.92 1024.92 1024.95
1024.47 1024.47 1024.52 1024.47 1024.47 1024.40 1024.35 1024.35 1024.40 1024.44 1024.44 1024.40 1024.40 1024.35 1024.31 1024.31 1024.31 1024.31 1024.47 1024.68 1024.80 1024.92 1024.92 1025.04 1025.07 1025.16 1025.31 1025.47 1025.64 1025.76 1025.80 1025.83 1025.99 1026.19 1026.40 1026.47 1026.52 1026.44 1026.35 1026.40 1026.52 1026.92 1027.28 1027.47 1027.52 1027.47 1027.47 1027.44 1027.35 1027.31 1027.04 1026.68 1026.31 1026.04 1025.83 1025.71 1025.59 1025.47 1025.35 1025.19 1025.11 1025.04 1025.04 1025.04 1024.99 1024.92 1024.88 1024.92 1024.95
1024.40 1024.40 1024.44 1024.40 1024.31 1024.31 1024.28 1024.28 1024.31 1024.31 1024.31 1024.28 1024.19 1024.19 1024.16 1024.16 1024.11 1024.19 1024.40 1024.64 1024.71 1024.76 1024.76 1024.88 1024.99 1025.16 1025.31 1025.47 1025.52 1025.59 1025.64 1025.68 1025.88 1026.07 1026.28 1026.40 1026.44 1026.44 1026.35 1026.35 1026.52 1026.76 1027.04 1027.35 1027.47 1027.44 1027.40 1027.35 1027.31 1027.23 1027.04 1026.64 1026.28 1025.99 1025.80 1025.68 1025.56 1025.44 1025.35 1025.19 1025.11 1025.04 1024.99 1024.99 1024.88 1024.80 1024.76 1024.80 1024.92
1024.31 1024.31 1024.31 1024.31 1024.28 1024.23 1024.23 1024.19 1024.19 1024.16 1024.16 1024.11 1024.04 1024.04 1024.04 1023.99 1023.99 1024.07 1024.31 1024.52 1024.64 1024.64 1024.68 1024.80 1024.95 1025.11 1025.28 1025.35 1025.31 1025.35 1025.47 1025.68 1025.83 1026.04 1026.19 1026.28 1026.35 1026.47 1026.47 1026.44 1026.47 1026.64 1026.92 1027.28 1027.40 1027.40 1027.35 1027.31 1027.23 1027.19 1027.04 1026.71 1026.31 1026.04 1025.83 1025.68 1025.52 1025.40 1025.31 1025.19 1025.11 1024.99 1024.92 1024.92 1024.80 1024.68 1024.64 1024.64 1024.80
1024.31 1024.31 1024.31 1024.28 1024.23 1024.19 1024.16 1024.07 1024.04 1024.04 1023.99 1023.96 1023.91 1023.91 1023.91 1023.91 1023.91 1024.04 1024.23 1024.47 1024.56 1024.64 1024.71 1024.76 1024.88 1024.95 1025.04 1025.11 1025.11 1025.19 1025.40 1025.64 1025.76 1025.99 1026.16 1026.23 1026.35 1026.56 1026.64 1026.56 1026.56 1026.64 1026.80 1027.11 1027.31 1027.35 1027.31 1027.28 1027.19 1027.16 1026.95 1026.64 1026.31 1026.07 1025.88 1025.68 1025.47 1025.35 1025.28 1025.19 1025.11 1024.99 1024.88 1024.76 1024.68 1024.64 1024.52 1024.47 1024.47
1024.31 1024.31 1024.28 1024.23 1024.19 1024.16 1024.04 1024.04 1023.96 1023.91 1023.91 1023.84 1023.84 1023.79 1023.79 1023.88 1023.91 1024.04 1024.19 1024.31 1024.47 1024.56 1024.64 1024.64 1024.68 1024.71 1024.80 1024.95 1024.99 1025.11 1025.35 1025.52 1025.64 1025.88 1026.07 1026.23 1026.35 1026.56 1026.68 1026.59 1026.56 1026.56 1026.64 1026.88 1027.07 1027.19 1027.23 1027.23 1027.19 1027.07 1026.92 1026.71 1026.47 1026.16 1025.83 1025.64 1025.47 1025.35 1025.28 1025.19 1025.16 1024.99 1024.83 1024.71 1024.64 1024.52 1024.47 1024.35 1024.31
Wind_Speed
7 7 6 5 5 5 4 4 4 3 3 4 4 4 4 4 4 4 4 4 4 4 3 3 3 3 4 4 5 5 5 5 6 6 6 6 6 7 6 6 7 7 7 8 8 7 7 7 6 5 4 4 5 5 5 5 6 7 8 8 7 7 8 8 8 9 9 10 8
8 7 6 5 5 4 4 4 4 3 3 4 4 4 4 4 4 4 4 4 3 3 3 3 3 4 4 4 4 4 5 5 5 5 5 6 6 6 6 6 6 6 7 7 8 7 7 8 7 5 5 5 5 6 6 6 6 8 9 9 8 7 7 8 8 9 9 9 8
7 6 6 5 5 4 4 4 4 4 4 4 3 3 3 3 3 3 3 3 4 3 3 3 3 3 4 4 4 4 4 4 4 4 5 5 5 6 6 6 6 6 6 7 7 7 7 8 6 5 5 5 6 6 6 7 7 8 9 9 8 7 6 6 7 8 8 7 9
6 6 5 6 6 6 5 4 4 4 4 3 3 3 3 3 3 3 3 3 4 3 3 3 3 3 3 3 3 4 4 4 4 4 4 5 5 6 6 6 7 7 7 7 7 7 8 8 6 5 5 6 7 7 7 7 8 8 7 8 7 7 7 7 7 7 7 7 8
6 6 5 5 6 5 5 4 4 4 4 3 3 3 3 3 2 2 3 3 3 3 3 3 3 2 2 2 3 3 3 3 3 3 4 4 5 5 6 6 7 7 7 7 7 8 8 9 6 5 6 7 6 7 7 8 8 8 7 6 7 7 7 7 7 7 7 7 8
6 6 5 5 5 5 4 4 4 4 3 2 3 3 3 2 2 3 3 3 3 3 3 3 2 2 2 2 2 2 2 3 3 4 4 5 5 6 6 7 7 7 7 7 8 8 8 8 6 5 5 6 6 7 8 9 9 8 8 7 7 7 7 8 7 7 8 9 10
6 6 5 5 5 4 4 4 4 3 3 3 4 4 4 3 3 3 3 3 3 3 3 2 2 2 2 2 2 2 3 3 3 4 5 5 6 6 7 7 7 7 8 8 8 8 8 8 6 6 6 6 6 7 9 9 9 9 9 9 8 7 8 9 8 8 9 11 12
5 5 5 5 5 4 4 4 3 3 3 3 4 4 4 4 3 3 3 2 2 2 2 2 2 2 2 2 2 3 3 3 4 4 5 5 6 6 7 7 8 8 8 8 8 9 8 7 6 6 7 7 6 8 10 11 11 11 11 11 9 8 8 8 8 9 10 12 13
5 4 4 4 4 4 4 3 3 3 3 3 4 4 4 3 3 2 2 2 2 2 2 2 2 2 2 2 2 2 3 3 4 4 4 5 6 6 7 7 8 8 8 8 9 9 9 7 6 7 7 7 8 9 10 12 12 12 12 10 9 9 9 9 10 10 11 12 13
4 4 4 4 4 4 3 3 3 3 3 3 4 4 3 2 2 2 2 2 2 2 2 2 1 1 1 1 2 2 3 3 4 4 4 4 5 6 7 7 8 8 8 8 9 9 9 8 8 8 9 9 10 11 11 12 12 12 11 9 9 11 12 11 12 12 12 12 12
4 4 3 3 4 3 3 3 3 2 2 3 3 3 3 2 1 2 2 1 1 1 1 1 1 0 0 1 1 2 2 2 3 4 4 5 5 6 7 7 8 9 9 9 9 8 8 8 9 10 11 11 11 11 11 11 11 11 11 10 11 12 12 13 12 12 12 12 13
3 3 3 3 3 3 2 2 2 2 2 2 2 2 1 2 2 1 1 0 1 1 1 1 0 0 1 1 1 1 2 2 3 3 4 5 6 7 7 8 9 9 10 9 9 8 8 9 10 11 12 12 10 9 10 11 11 11 11 11 11 12 12 12 12 11 11 12 12
3 3 3 3 3 2 2 1 1 1 1 1 1 1 1 2 2 1 1 2 1 0 1 2 1 1 0 1 1 1 2 2 3 3 4 5 6 7 8 8 9 9 9 9 9 9 9 10 11 12 12 12 10 9 9 10 10 10 11 11 11 11 12 12 12 12 12 12 12
2 2 2 2 2 2 2 1 1 0 0 0 1 2 2 2 1 1 2 2 1 1 1 2 2 1 0 1 1 2 2 3 3 3 4 5 5 7 7 8 9 9 9 8 9 10 10 11 11 12 12 11 11 10 10 10 10 10 10 11 11 12 12 12 12 12 12 12 13
3 3 2 2 2 2 2 1 1 1 1 1 2 2 2 2 1 1 2 2 2 2 2 2 2 1 1 1 2 2 3 3 3 4 4 5 5 6 7 8 8 9 9 9 9 10 11 11 11 11 11 11 10 10 10 9 9 10 10 10 11 12 12 12 12 12 12 13 13
3 3 3 3 3 2 2 2 1 1 1 1 2 2 2 2 1 1 1 2 2 3 2 2 2 2 2 2 2 3 3 3 3 4 4 5 5 6 7 7 8 9 9 10 10 10 10 10 10 10 10 10 10 10 10 10 10 10 11 11 11 12 12 13 13 13 13 13 13
3 3 3 3 3 3 2 2 2 2 2 2 2 2 2 2 1 1 2 3 3 3 3 3 2 2 2 2 2 2 3 3 3 4 4 5 5 6 6 7 8 8 9 10 10 10 10 10 9 9 9 9 9 10 10 10 10 11 11 11 11 12 12 12 12 12 12 13 13
3 3 3 3 3 3 3 2 2 2 2 2 2 2 2 2 2 2 2 3 3 3 3 3 3 2 2 2 2 2 3 3 3 4 4 4 4 5 5 6 7 8 8 9 10 10 11 10 10 9 9 9 9 9 10 10 10 11 11 11 11 11 11 11 12 11 12 12 12
3 3 3 3 3 3 3 3 3 3 2 2 3 3 2 2 2 3 3 4 4 4 4 3 3 3 3 2 2 2 2 3 3 3 3 3 4 4 5 6 6 7 8 9 10 10 10 10 10 9 9 9 9 9 10 10 10 10 11 11 11 11 11 11 11 11 11 12 12
3 3 3 3 3 3 3 3 3 3 3 3 3 3 3 3 3 4 4 4 3 3 4 4 4 3 3 3 3 2 2 2 2 2 2 3 3 4 5 5 6 7 8 9 9 10 10 10 10 10 9 9 9 9 10 10 10 10 10 10 10 11 11 11 11 11 12 12 12
3 3 3 3 4 4 3 3 3 3 3 3 4 4 3 3 4 4 4 3 3 4 4 4 4 4 3 3 3 3 2 2 2 2 2 3 3 4 4 5 6 7 7 8 9 9 10 10 10 10 10 9 9 9 9 10 10 10 10 10 10 11 11 12 12 12 12 12 12
4 4 4 4 4 4 4 3 4 4 4 4 4 4 4 4 4 4 4 3 4 4 5 5 4 4 4 4 3 3 3 2 2 2 2 3 3 3 4 4 5 6 7 8 8 9 10 10 10 10 10 9 9 9 9 9 10 10 11 11 11 11 12 12 11 11 12 12 12
4 4 4 4 4 4 4 4 4 5 5 5 5 5 4 4 4 4 4 4 5 5 5 5 4 4 4 4 4 4 3 3 3 3 2 3 3 3 4 4 5 6 6 7 7 8 9 9 10 10 10 9 9 9 9 9 10 10 11 11 12 12 11 11 11 11 11 11 11
4 4 4 3 4 5 5 5 5 6 6 6 6 5 4 4 4 5 5 6 6 6 5 4 4 4 4 4 4 4 4 4 4 3 2 2 3 3 4 4 4 5 5 5 6 7 8 8 8 9 9 9 9 9 9 9 9 10 10 11 11 11 11 11 11 11 11 12 11
4 4 4 4 5 5 6 6 6 6 6 6 6 5 5 5 5 6 6 7 6 6 6 5 5 5 5 5 5 5 5 4 4 3 2 2 2 3 4 3 3 3 4 5 6 7 7 7 8 8 8 9 9 9 9 9 9 10 10 10 11 11 11 11 11 11 11 11 11
4 5 5 5 6 6 6 7 7 7 7 6 6 5 5 6 6 6 7 7 7 7 6 6 6 5 5 5 5 5 5 4 3 3 3 2 3 3 3 3 3 2 3 4 6 6 7 8 8 8 8 9 9 9 9 8 9 9 10 10 10 10 10 11 11 11 11 11 11
5 5 5 6 6 7 7 7 7 7 7 7 7 6 6 6 6 7 7 8 7 7 7 6 6 5 5 6 6 6 6 5 4 3 3 2 3 3 3 3 2 2 3 4 5 6 7 8 8 7 8 8 9 9 9 8 9 9 9 9 9 9 10 11 11 12 11 11 12
5 6 6 6 7 7 7 7 7 7 7 7 7 7 7 7 7 8 8 8 8 7 7 6 6 6 6 6 6 6 6 5 4 4 3 3 3 3 3 3 2 2 4 4 5 6 6 7 7 7 7 8 8 9 9 8 8 8 8 8 8 9 10 10 10 11 11 12 11
6 6 6 7 7 7 8 8 8 8 7 7 7 7 7 8 8 9 9 9 8 8 7 6 5 5 5 6 6 6 6 5 4 4 3 3 3 3 3 3 2 3 4 4 4 5 6 7 6 6 6 7 8 8 7 7 7 7 7 7 7 8 9 10 10 10 11 11 11
6 6 7 7 7 8 8 8 8 8 7 7 7 7 8 9 9 10 10 10 9 9 7 6 5 6 6 7 6 6 6 5 4 4 3 3 3 3 3 2 2 3 4 4 4 5 5 6 6 6 6 7 8 8 8 7 7 7 7 7 7 9 10 10 11 11 11 11 11
6 6 7 7 8 8 8 8 8 7 6 6 7 8 9 9 10 10 10 10 9 8 7 6 6 7 7 7 6 6 6 5 5 4 4 4 3 3 3 3 2 2 4 3 3 4 5 6 7 7 7 8 9 8 8 8 8 7 7 7 8 9 10 10 10 11 12 12 11
6 6 7 7 8 8 8 8 7 7 6 7 8 8 9 10 10 10 10 9 8 7 7 7 7 8 8 8 7 6 6 5 5 4 4 4 4 4 3 3 1 3 4 3 3 4 5 6 7 7 8 9 9 9 9 8 8 7 7 8 9 9 9 9 9 10 12 12 11
6 6 7 7 7 7 7 7 6 6 6 7 8 8 9 10 10 10 9 8 7 7 7 8 8 8 8 8 7 7 6 5 5 4 4 4 4 4 4 3 1 4 4 2 2 3 4 5 7 8 9 10 10 10 9 8 7 7 7 7 8 9 9 10 10 10 11 11 10
6 6 7 7 7 7 7 7 6 6 6 7 8 8 9 10 10 10 9 8 7 7 7 8 8 8 8 7 7 6 5 4 5 5 5 5 4 4 4 4 1 4 5 1 2 3 4 5 7 8 10 11 10 9 9 8 7 7 7 8 8 8 9 9 9 10 10 10 9
6 6 7 7 7 7 7 7 7 6 6 7 8 9 9 10 10 10 9 7 6 6 7 7 7 7 7 6 6 5 5 5 5 5 5 5 4 4 4 3 1 4 5 1 2 3 4 5 7 9 10 10 9 8 8 8 8 8 8 9 9 9 9 9 9 9 8 9 9
6 6 6 7 8 8 8 8 7 7 7 7 8 9 9 10 10 9 8 6 6 6 7 8 7 7 6 5 5 5 6 6 6 5 5 4 4 5 4 3 1 4 5 1 1 3 4 5 7 9 10 10 8 7 7 7 7 7 8 9 9 9 9 8 8 8 7 7 8
6 6 7 7 8 8 8 8 8 8 8 8 9 9 9 10 9 8 6 5 6 7 8 8 7 7 6 6 6 7 7 7 6 6 5 5 4 4 4 3 0 3 4 2 1 3 4 5 7 9 10 9 8 7 6 6 6 7 8 8 8 9 8 8 7 7 7 7 7
6 6 7 7 8 8 8 8 8 8 9 9 9 9 9 9 8 7 6 5 7 7 8 7 7 6 6 7 7 7 7 6 6 6 6 5 5 4 3 3 1 2 3 2 0 2 4 5 7 8 9 9 8 7 6 6 6 6 7 7 8 8 8 7 6 6 6 6 6
7 7 7 8 8 8 9 9 9 9 9 9 9 9 8 8 7 5 5 5 6 7 7 7 7 7 7 8 8 7 6 6 6 6 6 6 4 3 2 3 1 1 2 3 1 2 4 5 6 8 9 9 8 7 6 6 6 7 7 7 7 7 7 7 6 6 6 6 5
7 7 8 8 8 8 9 9 9 9 9 9 9 8 8 7 6 4 4 5 6 6 7 7 8 8 8 8 7 6 6 6 6 6 6 5 4 3 2 3 2 1 2 4 2 2 3 5 6 8 9 8 8 7 6 6 6 7 7 7 7 7 7 7 6 6 6 7 5
7 7 8 8 8 8 9 9 9 9 9 8 8 8 7 6 5 4 5 5 6 6 6 7 8 8 8 7 6 6 6 7 7 7 6 5 5 4 4 4 3 3 2 4 3 2 3 5 6 7 8 8 8 7 6 6 6 7 7 8 7 7 7 7 6 6 6 7 6
Wind_Direction
83 82 81 79 79 80 80 78 71 65 60 58 58 58 58 54 53 49 43 36 31 29 28 25 27 33 40 42 39 42 46 49 51 49 46 41 36 31 26 24 20 15 11 7 2 359 354 350 347 345 343 341 336 336 338 340 336 332 329 328 325 323 321 319 319 320 320 318 317
91 93 96 98 98 97 96 97 93 84 74 67 63 60 58 53 49 46 42 38 32 28 27 28 35 42 47 50 48 47 48 50 49 47 44 40 34 26 20 17 16 13 9 4 1 357 352 347 344 341 338 337 333 332 333 337 333 330 326 325 323 321 319 317 319 319 318 317 317
96 99 102 102 100 98 96 96 92 87 82 77 73 66 61 55 49 44 41 35 28 25 27 36 49 53 54 56 57 54 51 46 39 36 35 34 27 21 14 8 7 7 6 1 358 354 348 342 338 335 332 332 331 330 330 332 331 328 325 325 322 319 317 315 317 318 317 317 318
91 89 86 82 81 82 83 83 83 82 81 81 79 74 68 61 55 48 40 34 29 29 34 46 61 66 65 66 69 65 58 47 34 28 27 25 20 15 9 3 360 359 359 358 354 350 344 337 332 328 328 330 329 329 329 331 329 327 324 324 320 317 315 314 317 317 317 316 316
92 87 84 81 81 81 82 84 84 85 86 88 86 81 75 66 56 46 38 34 40 46 53 58 70 82 88 86 83 77 69 56 35 24 19 17 13 8 3 359 358 355 353 354 350 347 342 335 330 330 333 333 331 330 329 329 326 324 322 320 317 314 312 312 315 315 314 312 312
101 98 95 92 91 90 89 87 87 87 87 86 75 71 67 59 44 36 36 46 62 74 81 81 90 101 106 97 83 72 61 50 34 21 14 10 8 3 360 357 356 353 350 351 348 346 343 337 332 333 336 333 328 326 327 328 325 323 320 316 314 311 309 309 310 309 308 306 307
109 109 108 105 103 101 100 101 100 99 94 83 70 62 55 45 40 41 49 67 88 99 106 114 114 110 99 83 63 47 34 27 23 18 11 7 4 2 359 356 354 353 351 351 348 347 345 339 335 336 337 334 329 329 330 331 328 324 320 317 314 310 308 307 307 304 301 301 302
108 107 107 107 109 110 111 111 110 105 96 83 75 67 59 53 54 60 70 83 94 104 112 116 104 89 71 61 46 33 22 14 13 13 12 6 3 0 358 356 354 353 353 352 349 347 345 340 338 340 340 336 332 332 333 331 328 324 320 316 313 310 308 307 304 301 299 298 299
110 109 108 110 113 114 114 109 102 94 85 80 78 75 72 70 73 74 75 75 89 106 118 116 108 94 73 57 41 28 18 10 8 8 9 6 2 359 357 356 355 354 353 353 350 347 344 341 342 342 341 335 332 332 331 330 327 324 320 314 313 312 310 307 304 302 300 300 300
115 118 121 121 120 120 118 113 106 99 91 88 90 92 92 93 79 61 58 67 98 121 125 112 113 104 80 59 38 28 19 10 3 2 2 4 1 359 357 356 355 354 353 354 350 346 343 342 343 341 338 332 330 329 329 329 327 323 320 315 315 314 312 309 307 306 304 303 302
117 122 126 126 128 130 131 129 122 113 102 97 106 111 115 110 70 54 58 83 133 135 116 91 81 26 22 54 38 28 19 7 356 352 355 1 1 359 357 357 355 354 353 353 349 345 342 341 339 337 334 330 329 329 328 328 326 323 321 317 316 314 312 311 311 309 307 305 305
121 125 127 127 134 140 147 147 130 116 111 112 116 111 96 77 59 53 51 235 202 149 122 114 147 289 326 29 25 15 2 356 346 345 350 360 0 359 357 358 356 354 352 352 347 343 340 339 336 333 331 330 330 330 330 330 327 325 322 320 318 316 314 314 313 312 311 310 309
131 135 136 135 145 158 167 165 139 125 121 119 86 31 28 45 42 8 297 283 281 203 146 159 186 215 275 350 349 343 340 338 337 340 348 358 360 358 357 357 356 354 351 350 345 341 338 336 334 332 331 331 331 331 331 330 328 326 324 322 320 317 316 315 315 314 313 312 310
150 151 151 151 166 179 194 199 178 162 148 26 7 1 3 20 20 331 303 299 292 242 191 186 193 199 274 333 322 319 320 322 329 337 346 356 359 358 356 356 354 352 350 347 343 340 337 335 334 333 331 331 330 330 330 329 328 326 324 323 320 318 317 316 315 315 314 312 308
168 168 169 173 189 206 220 234 242 267 297 327 357 354 348 352 8 335 302 294 263 235 219 215 206 190 182 261 285 293 300 308 321 332 343 354 357 357 356 355 353 351 348 344 341 339 337 335 334 333 331 330 329 328 328 328 326 325 324 323 320 319 318 318 318 317 315 312 309
182 183 186 194 208 222 237 252 272 292 306 327 351 343 330 332 353 316 266 259 243 234 229 232 227 209 194 206 245 269 285 300 317 331 342 351 355 355 355 352 350 348 345 342 340 338 337 336 334 333 331 328 327 327 327 327 326 325 324 323 322 321 320 320 319 318 316 313 310
196 198 202 212 222 235 249 267 284 300 311 326 334 324 317 321 318 254 233 238 244 243 240 239 245 237 222 212 233 259 282 301 319 332 342 349 350 351 351 349 347 345 343 341 339 338 337 337 335 332 330 327 327 328 328 329 328 326 325 324 322 321 321 320 319 317 315 312 310
213 215 218 227 238 246 256 270 282 296 308 320 318 314 311 309 292 255 230 227 240 248 250 243 246 249 248 242 250 270 291 310 323 333 340 343 343 344 345 345 343 342 341 340 340 339 338 337 336 332 329 328 328 330 330 330 328 326 325 323 321 320 320 319 318 315 312 311 310
231 232 235 241 249 254 258 263 273 285 296 304 303 302 296 286 273 255 237 221 227 239 249 247 242 241 244 248 255 269 287 305 316 323 328 329 331 335 338 340 339 339 340 341 342 341 339 337 335 332 329 329 330 331 330 329 327 325 323 321 320 320 319 319 316 313 311 311 311
255 257 257 258 259 258 256 253 262 273 282 287 288 286 280 266 257 251 242 225 217 226 240 248 243 240 237 239 243 250 262 281 293 300 304 308 316 325 333 335 337 339 342 345 345 343 341 338 334 331 329 329 329 329 329 328 325 323 321 319 320 320 320 318 316 314 312 312 312
274 278 278 275 268 260 252 246 253 263 272 275 274 274 269 258 249 245 242 231 217 220 231 239 240 240 239 237 238 240 244 256 264 274 283 291 306 321 331 334 337 341 345 348 348 346 342 338 333 330 328 327 327 327 327 326 323 321 321 320 321 321 321 319 317 316 315 314 313
287 289 287 279 267 257 249 245 250 258 265 267 267 266 262 254 244 235 227 222 219 223 228 232 235 238 242 243 244 241 238 237 238 251 268 284 302 318 328 331 336 342 348 351 352 348 343 337 332 329 326 324 325 325 325 323 321 320 321 322 322 322 321 319 319 318 317 317 316
296 296 291 277 261 251 246 245 250 255 260 262 262 260 256 248 235 222 213 213 219 224 228 230 232 235 239 243 243 241 236 231 230 236 254 281 303 316 324 328 338 346 352 358 357 351 343 335 331 328 325 323 323 323 322 321 320 320 321 322 322 321 320 320 320 320 320 319 319
298 296 290 274 258 250 247 247 250 254 258 260 261 258 252 242 229 218 214 214 220 224 226 226 226 227 229 232 234 236 238 239 237 239 250 279 304 315 322 326 342 352 0 9 7 356 343 334 329 326 324 322 322 322 321 320 320 320 321 321 320 319 319 320 320 321 321 321 321
293 288 280 269 260 254 251 250 252 255 259 263 263 257 248 236 228 222 220 219 220 222 223 225 222 220 219 221 223 228 234 241 245 249 258 273 295 307 314 323 346 0 11 20 12 357 342 333 330 326 323 321 322 321 319 317 319 319 319 318 317 317 318 319 320 321 322 322 322
287 280 273 267 262 259 257 256 257 259 262 264 261 253 244 236 230 228 226 225 221 219 220 223 220 218 217 220 219 221 224 227 228 235 247 262 281 297 309 323 349 13 25 25 4 349 340 335 333 328 323 320 321 319 317 316 317 317 316 314 314 316 318 319 321 323 324 324 324
284 279 274 270 265 264 264 264 264 263 262 261 256 251 245 239 235 233 233 232 225 219 216 221 217 213 215 223 221 221 220 217 208 210 224 248 271 291 306 320 347 25 37 25 358 345 338 334 337 336 331 323 320 317 315 314 316 315 313 313 314 317 320 321 323 325 326 326 325
285 283 280 276 272 270 269 270 268 266 263 259 255 252 247 243 241 239 239 238 231 223 217 217 213 212 215 224 221 219 217 216 206 203 210 231 256 280 302 318 346 42 51 27 356 344 339 335 339 344 343 330 319 313 310 311 312 312 313 313 317 320 323 326 326 327 327 327 326
289 287 284 281 278 276 274 272 269 267 265 262 258 254 248 244 242 242 241 241 236 230 225 219 212 213 219 227 222 216 211 208 208 209 216 230 254 276 296 313 339 52 65 42 360 345 341 335 338 345 345 332 319 312 309 310 311 312 313 316 320 325 328 329 329 328 327 327 327
290 288 285 283 281 278 275 273 271 270 268 265 260 254 248 245 243 242 241 240 238 237 234 228 220 220 225 229 223 214 206 200 204 210 221 232 256 274 289 309 339 51 67 49 3 346 341 335 334 336 336 326 315 309 306 308 310 311 313 316 322 325 328 329 329 329 329 329 329
286 285 284 282 280 278 276 275 273 270 265 261 256 253 250 248 247 245 244 242 241 240 238 235 233 233 233 232 224 215 207 198 200 208 220 232 250 272 289 305 342 57 69 50 3 346 340 335 330 328 325 319 310 305 303 305 308 309 312 316 320 324 327 328 329 330 331 331 331
283 283 283 281 279 278 277 275 272 266 260 257 255 254 253 252 252 251 250 248 245 241 237 235 237 239 238 234 224 216 210 207 215 225 235 248 262 275 287 292 345 70 74 50 0 344 339 334 327 323 318 313 304 299 298 300 304 306 309 313 317 322 326 329 329 330 332 333 333
282 283 283 283 282 280 277 274 268 262 257 255 255 256 256 256 257 256 254 250 244 240 237 238 240 242 240 233 224 218 215 218 226 231 236 247 264 276 284 283 21 79 80 41 352 340 336 331 324 319 315 308 299 294 294 299 303 306 309 313 317 322 327 330 330 331 332 333 335
280 282 284 284 283 281 277 272 264 258 253 253 255 256 257 259 259 257 253 243 236 235 238 243 245 245 242 235 228 221 217 215 219 222 228 241 258 272 281 285 43 87 89 36 344 334 331 327 321 317 312 304 295 292 296 304 306 308 311 314 318 324 329 331 330 330 331 333 337
280 282 284 284 283 280 276 272 265 259 255 256 258 259 260 259 259 256 251 239 230 232 238 245 247 246 243 235 229 223 216 211 215 222 231 246 260 268 275 284 70 97 99 60 339 330 326 323 319 315 310 301 293 293 300 308 310 312 314 316 320 325 329 331 329 329 331 334 340
285 284 283 282 280 278 276 273 270 266 263 263 264 264 264 262 259 256 250 235 227 231 239 245 245 242 236 225 220 217 215 212 213 217 225 238 254 266 276 286 91 107 110 99 334 323 321 319 317 313 309 300 296 299 306 312 312 314 315 317 321 326 329 330 327 327 329 334 341
287 283 280 277 276 276 275 273 272 270 269 269 269 268 267 265 260 254 243 227 227 234 241 243 240 235 226 217 217 220 222 219 213 210 212 218 237 257 274 287 5 112 117 119 325 315 315 315 315 313 309 303 304 307 311 313 313 314 316 319 322 326 329 326 324 324 327 334 340
289 283 277 273 273 274 274 272 271 271 271 272 273 273 271 268 263 250 233 219 231 238 242 240 233 225 219 218 223 225 226 224 214 208 207 210 222 246 271 286 295 117 121 123 293 306 308 310 312 312 311 307 309 310 312 312 313 315 318 321 323 326 326 323 322 322 325 332 336
293 287 281 276 274 273 272 270 270 271 272 274 276 277 276 273 266 251 228 220 234 242 242 237 226 220 218 223 227 225 220 218 212 207 207 208 207 227 266 283 276 149 129 131 193 290 301 305 308 310 310 306 309 310 311 310 313 316 319 323 323 323 323 321 321 321 322 328 329
293 288 283 277 273 270 269 268 269 270 272 275 277 278 278 276 270 255 232 226 235 239 238 233 226 222 221 224 227 221 212 211 207 204 203 206 189 190 223 260 261 223 158 147 176 258 291 299 303 307 309 308 311 310 309 309 313 318 322 324 324 322 321 321 322 322 323 324 323
291 285 279 272 267 265 265 266 268 270 272 274 275 277 278 279 270 252 235 228 229 229 229 230 229 226 222 221 224 216 207 210 207 201 196 200 185 183 198 226 238 234 200 157 167 220 279 292 297 304 310 314 312 309 307 310 315 321 325 327 325 322 320 321 322 323 323 324 324